STARLINK-36187, 68613

Orbit data source: Space-Track

STARLINK-36187, 68613 is a payload satellite owned by SpaceX/Seattle (US) in SSO that was launched on Sun, 05 Apr 2026 UTC via an FALCON 9 launch vehicle from the Air Force Western Test Range (AFWTR). Payload-class satellites include a variety of spacecraft equipped with specific instruments for various scientific and technological missions. These include communications satellites like Starlink; space stations such as the ISS; scientific satellites like the Hubble; Earth observation satellites from companies like Planet Labs, Umbra, and HawkEye 360; GPS; miniature CubeSats for education and research; and military/defense satellites.

Loading next visibility...
Identifier
68613, 2026-073M
Orbit
SSO
Country
Flag of USUS
Related business
Manufacturer
SpaceX/Seattle
Mission
Operational spacecraft
Bus & Motor
STARLINK V2MO, Unknown motor
Mass
575 kg wet, ~530 kg dry
Launch date (UTC)
2026-04-05 (3 months ago)
Launch vehicle
FALCON 9
Launch site
Air Force Western Test Range (AFWTR)
Object type
Payload
Rocket body
Debris
Shape & HBR
Unknown shape, 2.2 m
Radar Cross Section
Large (>1 m²)

Expand to show TLE details & history
Last TLE update: 13 hours ago

TLE from 13 hours ago
0 STARLINK-36187
1 68613U 26073M   26171.28362119  .00015868  00000-0  49278-3 0  9992
2 68613  97.2856  10.6862 0002382  89.7688 270.3828 15.33443815 11613
Epoch: 2026-06-20T06:48Z
TLE epoch observation values (Epoch: 2026-06-20T06:48:24.870Z)
Latitude
-0.00002°
Longitude
0.08211°
Altitude
468.648 km
Speed
7.632 km/s
True Right ascension
00h 42m 44s
True Declination
0° 00' 00"
Sunlit
Object was in daylight at epoch
Visualization orbit readout
Latitude
Unknown
Longitude
Unknown
Altitude
Unknown
Speed
Unknown
Apparent Right ascension
Unknown
Apparent Declination
Unknown
Sunlit
N/A
Visualization observer readout
Local Sidereal Time
07:14:08
Azimuth
Unknown
Elevation
Unknown
Doppler factor
Unknown
Orbital elements
Apogee altitude
464.119 km
Perigee altitude
460.86 km
Semi-major axis
6,840.626 km
Eccentricity
0.00024
Inclination
97.2856°
RAAN
10.6862°
Arg. of periapsis
89.7688°
True anomaly
270.3555°
Mean anomaly
270.3828°
Eccentric anomaly
270.36915°
Mean motion
3.83618 °/min
Orbital period
93.84 mins
BSTAR
0.00049278
Loading maneuver chart data...
Computing Atmospheric mass density...
Loading historical data...
Loading historical data...
Loading historical data...
Loading historical data...
Loading historical data...
Loading historical data...
Loading historical data...

Documentation

Showing up to 5 results
|